TimePST,TemperatureF,Dew PointF,Humidity,Sea Level PressureIn,VisibilityMPH,Wind Direction,Wind SpeedMPH,Gust SpeedMPH,PrecipitationIn,Events,Conditions,WindDirDegrees,DateUTC
12:15 AM,35.6,35.6,100,30.19,10.0,Calm,Calm,-,N/A,,Scattered Clouds,0,2013-02-08 08:15:00
12:35 AM,35.6,33.8,93,30.19,9.0,Calm,Calm,-,N/A,,Scattered Clouds,0,2013-02-08 08:35:00
12:55 AM,33.8,32.0,93,30.19,8.0,Calm,Calm,-,N/A,,Partly Cloudy,0,2013-02-08 08:55:00
1:15 AM,33.8,33.8,100,30.19,9.0,Calm,Calm,-,N/A,,Partly Cloudy,0,2013-02-08 09:15:00
1:35 AM,33.8,33.8,100,30.20,10.0,Calm,Calm,-,N/A,,Mostly Cloudy,0,2013-02-08 09:35:00
1:55 AM,33.8,33.8,100,30.21,10.0,Calm,Calm,-,N/A,,Overcast,0,2013-02-08 09:55:00
2:15 AM,35.6,35.6,100,30.21,10.0,Calm,Calm,-,N/A,,Overcast,0,2013-02-08 10:15:00
2:35 AM,37.4,37.4,100,30.22,10.0,Calm,Calm,-,N/A,,Overcast,0,2013-02-08 10:35:00
2:55 AM,41.0,39.2,93,30.22,10.0,NNW,8.1,-,N/A,,Overcast,340,2013-02-08 10:55:00
3:15 AM,39.2,37.4,93,30.22,10.0,Calm,Calm,-,N/A,,Scattered Clouds,0,2013-02-08 11:15:00
3:35 AM,37.4,35.6,93,30.22,10.0,Calm,Calm,-,N/A,,Clear,0,2013-02-08 11:35:00
4:15 AM,37.4,35.6,93,30.23,10.0,Calm,Calm,-,N/A,,Overcast,0,2013-02-08 12:15:00
4:35 AM,41.0,37.4,87,30.24,10.0,North,5.8,-,N/A,,Overcast,350,2013-02-08 12:35:00
4:55 AM,41.0,37.4,87,30.23,10.0,Calm,Calm,-,N/A,,Overcast,0,2013-02-08 12:55:00
5:35 AM,39.2,37.4,93,30.24,10.0,Calm,Calm,-,N/A,,Overcast,0,2013-02-08 13:35:00
6:15 AM,37.4,37.4,100,30.24,10.0,Calm,Calm,-,N/A,,Overcast,0,2013-02-08 14:15:00
6:35 AM,37.4,37.4,100,30.25,3.0,Calm,Calm,-,N/A,Rain,Light Rain,0,2013-02-08 14:35:00
6:55 AM,37.4,37.4,100,30.25,7.0,Calm,Calm,-,N/A,,Mostly Cloudy,0,2013-02-08 14:55:00
7:15 AM,37.4,37.4,100,30.25,5.0,Calm,Calm,-,N/A,,Overcast,0,2013-02-08 15:15:00
7:35 AM,37.4,37.4,100,30.26,5.0,Calm,Calm,-,N/A,,Overcast,0,2013-02-08 15:35:00
7:55 AM,37.4,37.4,100,30.26,3.0,Calm,Calm,-,N/A,,Overcast,0,2013-02-08 15:55:00
8:15 AM,39.2,37.4,93,30.26,3.0,Calm,Calm,-,N/A,,Overcast,0,2013-02-08 16:15:00
8:35 AM,39.2,39.2,100,30.27,2.0,Calm,Calm,-,N/A,Rain,Light Rain,0,2013-02-08 16:35:00
8:55 AM,39.2,39.2,100,30.27,3.0,Calm,Calm,-,N/A,Rain,Light Rain,0,2013-02-08 16:55:00
9:15 AM,39.2,39.2,100,30.28,5.0,Calm,Calm,-,N/A,,Mostly Cloudy,0,2013-02-08 17:15:00
9:35 AM,39.2,39.2,100,30.28,6.0,Calm,Calm,-,N/A,,Mostly Cloudy,0,2013-02-08 17:35:00
9:55 AM,41.0,39.2,93,30.28,4.0,WSW,3.5,-,N/A,Rain,Light Rain,250,2013-02-08 17:55:00
10:15 AM,41.0,39.2,93,30.28,10.0,Calm,Calm,-,N/A,,Overcast,0,2013-02-08 18:15:00
10:35 AM,41.0,39.2,93,30.29,10.0,Calm,Calm,-,N/A,,Overcast,0,2013-02-08 18:35:00
11:15 AM,41.0,39.2,93,30.29,10.0,Calm,Calm,-,N/A,,Mostly Cloudy,0,2013-02-08 19:15:00
11:35 AM,41.0,39.2,93,30.29,10.0,Calm,Calm,-,N/A,,Overcast,0,2013-02-08 19:35:00
11:55 AM,41.0,37.4,87,30.28,10.0,Calm,Calm,-,N/A,,Mostly Cloudy,0,2013-02-08 19:55:00
12:15 PM,41.0,39.2,93,30.28,10.0,Calm,Calm,-,N/A,,Overcast,0,2013-02-08 20:15:00
12:35 PM,42.8,39.2,87,30.27,10.0,NW,3.5,-,N/A,,Overcast,310,2013-02-08 20:35:00
12:55 PM,42.8,39.2,87,30.27,10.0,North,4.6,-,N/A,,Overcast,350,2013-02-08 20:55:00
1:15 PM,42.8,37.4,81,30.27,10.0,NNW,4.6,-,N/A,,Overcast,340,2013-02-08 21:15:00
1:35 PM,42.8,37.4,81,30.28,10.0,North,4.6,-,N/A,,Overcast,350,2013-02-08 21:35:00
1:55 PM,42.8,37.4,81,30.28,10.0,North,4.6,-,N/A,,Overcast,350,2013-02-08 21:55:00
2:15 PM,42.8,37.4,81,30.27,10.0,Calm,Calm,-,N/A,,Overcast,0,2013-02-08 22:15:00
2:35 PM,42.8,37.4,81,30.27,10.0,Calm,Calm,-,N/A,,Overcast,0,2013-02-08 22:35:00
2:55 PM,42.8,37.4,81,30.27,10.0,Calm,Calm,-,N/A,,Overcast,0,2013-02-08 22:55:00
3:15 PM,42.8,37.4,81,30.27,10.0,Calm,Calm,-,N/A,,Overcast,0,2013-02-08 23:15:00
3:35 PM,41.0,37.4,87,30.27,10.0,Calm,Calm,-,N/A,,Overcast,0,2013-02-08 23:35:00
4:15 PM,42.8,35.6,76,30.27,8.0,Calm,Calm,-,N/A,,Overcast,0,2013-02-09 00:15:00
4:35 PM,42.8,37.4,81,30.26,10.0,Calm,Calm,-,N/A,,Overcast,0,2013-02-09 00:35:00
4:55 PM,41.0,35.6,81,30.27,10.0,Calm,Calm,-,N/A,,Overcast,0,2013-02-09 00:55:00
5:15 PM,41.0,37.4,87,30.27,10.0,Calm,Calm,-,N/A,,Overcast,0,2013-02-09 01:15:00
5:35 PM,41.0,37.4,87,30.27,10.0,Calm,Calm,-,N/A,,Overcast,0,2013-02-09 01:35:00
5:55 PM,41.0,37.4,87,30.27,10.0,Calm,Calm,-,N/A,,Overcast,0,2013-02-09 01:55:00
6:15 PM,41.0,37.4,87,30.27,10.0,Calm,Calm,-,N/A,,Overcast,0,2013-02-09 02:15:00
6:55 PM,41.0,37.4,87,30.26,10.0,Calm,Calm,-,N/A,,Overcast,0,2013-02-09 02:55:00
7:15 PM,41.0,37.4,87,30.26,10.0,Calm,Calm,-,N/A,,Overcast,0,2013-02-09 03:15:00
7:35 PM,41.0,37.4,87,30.26,10.0,Calm,Calm,-,N/A,,Overcast,0,2013-02-09 03:35:00
7:55 PM,41.0,37.4,87,30.26,10.0,Calm,Calm,-,N/A,,Overcast,0,2013-02-09 03:55:00
8:15 PM,41.0,37.4,87,30.26,10.0,Calm,Calm,-,N/A,,Overcast,0,2013-02-09 04:15:00
8:35 PM,41.0,37.4,87,30.27,10.0,Calm,Calm,-,N/A,,Overcast,0,2013-02-09 04:35:00
8:55 PM,41.0,37.4,87,30.26,10.0,Calm,Calm,-,N/A,,Overcast,0,2013-02-09 04:55:00
9:15 PM,41.0,37.4,87,30.26,10.0,Calm,Calm,-,N/A,,Overcast,0,2013-02-09 05:15:00
9:35 PM,41.0,37.4,87,30.26,10.0,Calm,Calm,-,N/A,,Overcast,0,2013-02-09 05:35:00
9:55 PM,39.2,37.4,93,30.26,10.0,Calm,Calm,-,N/A,,Overcast,0,2013-02-09 05:55:00
10:15 PM,39.2,37.4,93,30.27,10.0,Calm,Calm,-,N/A,,Overcast,0,2013-02-09 06:15:00
10:35 PM,39.2,37.4,93,30.26,10.0,Calm,Calm,-,N/A,,Overcast,0,2013-02-09 06:35:00
10:55 PM,39.2,37.4,93,30.25,10.0,Calm,Calm,-,N/A,,Mostly Cloudy,0,2013-02-09 06:55:00
11:15 PM,39.2,37.4,93,30.26,10.0,Calm,Calm,-,N/A,,Overcast,0,2013-02-09 07:15:00
11:35 PM,39.2,37.4,93,30.26,10.0,Calm,Calm,-,N/A,,Overcast,0,2013-02-09 07:35:00
11:55 PM,39.2,37.4,93,30.27,10.0,Calm,Calm,-,N/A,,Overcast,0,2013-02-09 07:55:00